This is the latest recevied weather packets stored in our database for station/object K5YNC. If no packets are shown the sender has not sent any weather packets the latest 10 day(s).
| Time | Temp. | Humidity | Pressure | Rain* | Wind** | Luminosity | Snow |
|---|---|---|---|---|---|---|---|
| 1777767905 | 22.22° C | 45% | 1020.2 hPa | 0 mm | - | 28 W/m² | - |
| 1777767601 | 22.22° C | 45% | 1020.1 hPa | 0 mm | - | 29 W/m² | - |
| 1777767298 | 22.78° C | 45% | 1020.1 hPa | 0 mm | - | 31 W/m² | - |
| 1777766996 | 22.78° C | 43% | 1020.1 hPa | 0 mm | - | 33 W/m² | - |
| 1777766692 | 22.78° C | 44% | 1020.1 hPa | 0 mm | - | 37 W/m² | - |
| 1777766390 | 22.78° C | 43% | 1020 hPa | 0 mm | - | 37 W/m² | - |
| 1777766087 | 23.33° C | 42% | 1020.2 hPa | 0 mm | - | 38 W/m² | - |
| 1777765784 | 23.33° C | 42% | 1020.1 hPa | 0 mm | - | 39 W/m² | - |
| 1777765480 | 23.33° C | 40% | 1020.2 hPa | 0 mm | - | 40 W/m² | - |
| 1777765178 | 23.33° C | 41% | 1020.2 hPa | 0 mm | - | 45 W/m² | - |
| 1777764873 | 23.33° C | 41% | 1020.1 hPa | 0 mm | - | 44 W/m² | - |
| 1777764570 | 23.33° C | 40% | 1020.3 hPa | 0 mm | - | 45 W/m² | - |
| 1777764267 | 23.33° C | 42% | 1020.3 hPa | 0 mm | - | 46 W/m² | - |
| 1777763963 | 23.33° C | 40% | 1020.2 hPa | 0 mm | - | 46 W/m² | - |
| 1777763661 | 23.89° C | 40% | 1020.3 hPa | 0 mm | - | 47 W/m² | - |
| 1777763359 | 23.89° C | 41% | 1020.3 hPa | 0 mm | - | 48 W/m² | - |
| 1777763057 | 23.89° C | 42% | 1020.4 hPa | 0 mm | - | 50 W/m² | - |
| 1777762755 | 23.89° C | 42% | 1020.5 hPa | 0 mm | - | 51 W/m² | - |
| 1777762450 | 23.89° C | 40% | 1020.5 hPa | 0 mm | - | 52 W/m² | - |
| 1777762147 | 23.89° C | 40% | 1020.5 hPa | 0 mm | - | 53 W/m² | - |
| 1777761843 | 23.89° C | 42% | 1020.6 hPa | 0 mm | - | 55 W/m² | - |
| 1777761541 | 24.44° C | 41% | 1020.6 hPa | 0 mm | - | 58 W/m² | - |
| 1777761239 | 23.89° C | 42% | 1020.5 hPa | 0 mm | - | 90 W/m² | - |
| 1777760936 | 24.44° C | 41% | 1020.5 hPa | 0 mm | - | 77 W/m² | - |
| 1777760634 | 24.44° C | 42% | 1020.5 hPa | 0 mm | - | 98 W/m² | - |
* Rain latest hour (hover to see other rain measurements)
** Current wind speed in m/s (hover to see current wind gust speed)